braxton's sites:

title views votes rating creation
?My Drunk Mother in Law 2 3,477 23 (4.30)  2011-01-09
?My Drunk Mother in Law 6,767 50 (3.96)  2011-01-04
?My Drunk Ex-Wife 3,801 25 (4.00)  2010-07-06
?Gr33n Art Nouveau 1,024 18 (3.61)  2009-12-12
?(nsfw) Max and Friends Relax.avi 2,104 46 (4.11)  2009-10-27
?Choose the new Xanax campaign billboard 1,045 19 (4.16)  2009-09-15
?Emma and Steph 6,388 104 (3.86)  2009-07-25
?TournamenTMND3: LOSERS BRACKET 1,162 33 (4.09)  2009-07-23
?YteamND Collab: Lester's Room 959 20 (4.20)  2009-07-21
?(nsfw) Walter Cronkite's Last Skeet 2,484 25 (4.08)  2009-07-17
?TOURNEY3: DramamarD 882 14 (4.00)  2009-07-16
?5509 Chestnut Street 1,101 10 (4.50)  2009-07-15
?(nsfw) Words are Important 1,649 21 (4.29)  2009-07-05
?The Final 2 Users of YTMND 766 14 (3.29)  2009-07-05
?Elastic Snap Hole of the Love Bear I'm Late ... 1,102 17 (3.82)  2009-07-05
?Hey Man Nice Pez 2,674 22 (4.18)  2009-05-25
?Lester and All Man in 2012 3,949 50 (4.14)  2009-02-26
?AMFSTFU 3,756 21 (3.76)  2009-02-14
?MICROPHONETMND: Feedback 924 33 (4.03)  2009-02-11
?Braxton has an answer for Max 1,464 45 (4.02)  2008-12-30
?Shoe Jokes 1,126 21 (3.86)  2008-12-15
?Braxton is no longer featured 890 34 (3.68)  2008-12-05
?Am I Still Featured? 781 11 (3.36)  2008-12-05
?American People 2,545 58 (3.79)  2008-10-31
?(nsfw) Lester and All Man Vote 3,988 149 (4.03)  2008-10-22
?Venus in Spurs 1,918 51 (3.29)  2008-10-15
?1987 Fleer 2,489 54 (3.37)  2008-10-14
?Moon Man vs. All Man 2,419 80 (3.69)  2008-09-21
?(nsfw) Sparkles 3,867 147 (4.02)  2008-09-05
?Bill Kurtis finds the Internet 5,636 64 (3.58)  2008-08-25
?Another site about tits 7,654 101 (3.93)  2008-08-22
?John Cusack in... Eat Anything 6,932 32 (4.09)  2008-08-20
?(nsfw) fyrestorm vs tits 17,322 282 (3.98)  2008-08-19
?you know why you didn't see a sign? 2,123 37 (4.30)  2008-06-29
?Small Brown Men 481 5 (3.80)  2008-06-26
?Harry Potter and the Best Fad Ever 2,219 19 (3.89)  2008-06-16
?Custer's Revenge 5,275 34 (4.32)  2008-06-15
?Pushing your button 630 8 (4.13)  2008-06-08
?KHOCKTMND 515 13 (3.00)  2008-06-08
?Road Raging 746 15 (3.47)  2008-06-07
?McCain's Secret Identity 792 12 (3.58)  2008-06-07
?Lester and All-Man Night on the Town 3,654 45 (4.27)  2008-06-05
?Lester and All-Man's Day Off 5,634 79 (4.22)  2008-05-31
?Beheading Heidi Montag 1,202 14 (3.64)  2008-05-31
?Indiana Jones and the magical forest 647 14 (2.57)  2008-05-31
?Indiana Jones and the Temple of YTMND! 649 13 (2.38)  2008-05-31
?(nsfw) My Drunk Wife wants a divorce 13,275 183 (3.79)  2008-05-31
?Hulk Kok 952 13 (4.15)  2008-05-29
?(nsfw) Renee Zellweger vs Sarah Jessica Parker 15,757 270 (3.51)  2008-05-28
?Soft brain is perfect for crushing 523 8 (3.50)  2008-05-11
?See N Say 1,816 37 (4.19)  2008-05-10
?alphabetz and drugz 987 14 (3.86)  2008-05-09
?4 years ago NEVER FORGET 635 9 (2.78)  2008-05-08
?5 DAYS LATER NEVER FORGET 644 7 (2.43)  2008-05-08
?Miley Cyrus vs. Ninja 1,564 8 (2.00)  2008-05-07
?Dewey Duck gets a drug problem 594 10 (3.50)  2008-05-07
?McMuffin 1,738 11 (3.00)  2008-05-07
?Metal Gear VS. GTA4 668 13 (1.77)  2008-05-06
?Mila Kunis really likes milkshakes 1,138 11 (2.73)  2008-05-06
?Picard sexz Counselor Troy 1,001 10 (2.60)  2008-05-06
?Heidi Montag Sex Tape 970 5 (2.80)  2008-05-05
?Iron Man given go ahead for sequel 740 12 (2.25)  2008-05-05
?Eight Belles 464 7 (3.00)  2008-05-05
?My Drunk Wife Part 2 4,951 85 (4.24)  2008-03-17
?I found your balls 734 12 (3.58)  2008-02-13
?Ben from Short Circuit beats his wife 842 9 (2.22)  2008-02-13
?(nsfw) I vote for Obama because 1,176 9 (3.67)  2008-02-12
?Tom Brady is Beauty 710 4 (3.25)  2008-02-12
?Is this your baby? 569 4 (3.00)  2008-02-12
?(nsfw) My Drunk Wife 9,471 128 (4.49)  2008-02-10
?Hillary Clinton will be our next President 800 12 (2.67)  2008-01-27
?Uncle Phil Works his ass off 456 6 (2.83)  2008-01-25
?Crop your photos 1,029 27 (4.00)  2008-01-24
?Danson vs. Cruise who is truly God? 425 5 (3.40)  2008-01-17
?(nsfw) YTMND user's sister vs. Black man 805 10 (3.50)  2008-01-16
?2 Marshmallows do Snow White during a Thunders... 618 10 (3.50)  2008-01-16
?Pump you up 454 5 (3.00)  2008-01-16
?War, Famine, Conquest, Death, Cowabunga 334 9 (2.56)  2008-01-14
?(nsfw) Terrell Owens actin' like a bitch 1,345 11 (3.09)  2008-01-14
?Peppy Hare is invading Navy Waters 863 9 (2.22)  2008-01-13
?The coolest kid you knew on the short bus 932 15 (2.80)  2008-01-12
?(nsfw) Danson is all, all is Him 687 8 (3.00)  2008-01-11
?Danson vs. Connery (Refresh) 497 11 (2.36)  2008-01-09
?Ninja Scroll's Jubei vs. Michael J. Fox 680 5 (3.40)  2008-01-08
?Ted Danson Judgement Day 714 9 (3.44)  2008-01-08
?Full House's Stephanie's confession 1,382 24 (3.04)  2008-01-07
?Nobody can kick my ass 822 9 (3.56)  2008-01-07
?OMFG Obama 2,055 17 (3.29)  2008-01-07
?Hillary's revenge 985 9 (3.00)  2008-01-06
?Ted Danson epic procreation maneuver 834 15 (3.20)  2008-01-03
?Ted Danson epic evolution maneuver 1,517 22 (4.00)  2008-01-01
?Nigga stole my baby 2,321 9 (2.00)  2008-01-01
?Ted Danson invented jazz 750 9 (3.00)  2007-12-31
?Ted Danson is fighting the power 658 11 (3.55)  2007-12-31
?Ted Danson says hello 808 15 (3.93)  2007-12-30
?Eric Clapton...close your window 1,840 17 (1.76)  2007-12-30
?Ted Danson stole my race 1,425 35 (3.94)  2007-12-29
?Chinese people eat penis 1,301 14 (3.14)  2007-12-29
?You have chosen wisely 4,571 11 (3.64)  2007-12-29
?ASIAN WHORE LIKES TACOS 689 11 (2.45)  2007-12-28
?ASIAN WHORE HATES JEWS 1,134 12 (2.83)  2007-12-28
?ASIAN WHORE HAS TURTLE POWER 775 13 (3.00)  2007-12-28
?lol 673 6 (2.50)  2007-12-28
?Sonny Bono's child of incest wins the Showc... 1,254 9 (4.00)  2007-12-28
?(nsfw) Pootie Tang stole my bike 1,140 9 (2.67)  2007-12-27
?The answer is Not 677 6 (2.50)  2007-12-27
?Nigga Stole My Cat 2,671 21 (3.52)  2007-12-27